CW0230 Weather Reports


time (UTC)temp
F
wind
direction
speed
knots
gust
knots
rain 1hr
in
rain 24hr
in
rain mn
in
humidity
%
barometer
mb
20260505215005 53 324 2.6 6.1 0.00 0.00 0.00 74 1013.3
20260505214504 53 316 1.7 6.1 0.00 0.00 0.00 74 1013.3
20260505213005 53 338 0.9 2.6 0.00 0.00 0.00 73 1013.2
20260505212004 53 328 1.7 4.3 0.00 0.00 0.00 72 1013.3
20260505211505 53 357 0.9 2.6 0.00 0.00 0.00 72 1013.2
20260505211005 53 329 0.9 2.6 0.00 0.00 0.00 72 1013.2
20260505210505 54 343 1.7 2.6 0.00 0.00 0.00 71 1013.2
20260505205504 54 336 1.7 4.3 0.00 0.00 0.00 70 1013.2
20260505205004 54 341 1.7 2.6 0.00 0.00 0.00 70 1013.2
20260505204505 54 17 1.7 2.6 0.00 0.00 0.00 69 1013.2
20260505204004 55 333 1.7 5.2 0.00 0.00 0.00 68 1013.2
20260505202505 55 357 1.7 4.3 0.00 0.00 0.00 67 1013.1
20260505202005 56 347 1.7 4.3 0.00 0.01 0.00 67 1013.0
20260505201504 56 337 1.7 6.1 0.00 0.01 0.00 66 1013.0
20260505200005 56 15 1.7 7.0 0.00 0.02 0.00 65 1012.9
20260505195004 57 355 2.6 7.0 0.00 0.02 0.00 64 1012.8
20260505193505 57 358 2.6 7.0 0.00 0.02 0.00 64 1012.6
20260505193005 57 1 2.6 7.0 0.00 0.02 0.00 64 1012.6
20260505191505 58 344 1.7 5.2 0.00 0.02 0.00 63 1012.6
20260505185504 59 9 2.6 5.2 0.00 0.02 0.00 62 1012.4
20260505185004 59 340 1.7 6.1 0.00 0.02 0.00 62 1012.3
20260505182504 60 338 3.5 7.8 0.00 0.02 0.00 59 1012.2
20260505182005 60 341 4.3 7.8 0.00 0.02 0.00 57 1012.1
20260505181004 60 345 1.7 7.8 0.00 0.02 0.00 57 1012.1
20260505180005 61 354 4.3 6.1 0.00 0.02 0.00 55 1012.1
20260505175505 61 341 2.6 7.8 0.00 0.02 0.00 55 1012.1
20260505173505 62 10 4.3 8.7 0.00 0.02 0.00 53 1012.1
20260505173005 62 358 4.3 8.7 0.00 0.02 0.00 53 1012.2
20260505172504 62 4 3.5 8.7 0.00 0.02 0.00 52 1012.1
20260505172004 62 7 4.3 8.7 0.00 0.02 0.00 50 1012.2
20260505171505 63 339 4.3 7.8 0.00 0.02 0.00 51 1012.2
20260505171005 63 13 2.6 7.8 0.00 0.02 0.00 51 1012.2
20260505170504 63 345 2.6 11.3 0.00 0.02 0.00 51 1012.2
20260505165504 63 330 4.3 7.8 0.00 0.02 0.00 51 1012.2
20260505165004 63 343 5.2 7.8 0.00 0.02 0.00 48 1012.3
20260505163504 63 319 4.3 8.7 0.00 0.02 0.00 50 1012.3
20260505162505 63 25 3.5 8.7 0.00 0.02 0.00 50 1012.2
20260505161504 63 6 3.5 8.7 0.00 0.03 0.00 51 1012.3
20260505160505 63 331 5.2 8.7 0.00 0.03 0.00 50 1012.2
20260505153005 63 353 4.3 10.4 0.00 0.04 0.00 51 1012.4
20260505152504 64 349 6.1 10.4 0.00 0.04 0.00 49 1012.4
20260505140504 62 345 6.1 11.3 0.00 0.04 0.00 55 1012.8
20260505124505 63 353 5.2 8.7 0.00 0.04 0.00 57 1013.2
20260505124005 64 347 4.3 8.7 0.00 0.04 0.00 58 1013.2
20260505122505 64 356 2.6 11.3 0.00 0.04 0.00 60 1013.1
20260505121504 63 340 4.3 10.4 0.00 0.04 0.00 59 1013.2
20260505120005 63 13 4.3 10.4 0.00 0.04 0.00 58 1013.3
20260505115005 63 342 6.1 11.3 0.00 0.04 0.00 60 1013.2
20260505114004 63 350 3.5 10.4 0.00 0.04 0.00 59 1013.2
20260505113504 63 1 5.2 12.2 0.00 0.04 0.00 60 1013.2
20260505113005 63 338 6.1 12.2 0.00 0.04 0.00 61 1013.3
20260505112504 63 357 4.3 7.8 0.00 0.04 0.00 62 1013.3
20260505111505 61 329 4.3 7.8 0.00 0.04 0.00 63 1013.3
20260505111004 61 330 4.3 10.4 0.00 0.04 0.00 63 1013.3
20260505101004 57 25 2.6 7.0 0.00 0.04 0.00 70 1013.7
20260505100004 57 8 4.3 7.8 0.00 0.04 0.00 70 1013.7
20260505094504 57 350 3.5 7.8 0.00 0.04 0.00 73 1013.7
20260505092504 57 354 3.5 6.1 0.00 0.04 0.00 74 1013.8
20260505092005 57 6 1.7 6.1 0.00 0.04 0.00 74 1013.8
20260505090505 57 16 3.5 8.7 0.00 0.04 0.00 73 1013.7
20260505085004 57 355 4.3 8.7 0.00 0.04 0.00 74 1013.8
20260505084505 57 329 2.6 7.0 0.00 0.04 0.00 76 1013.8
20260505083504 57 328 4.3 7.0 0.00 0.04 0.00 77 1014.0
20260505082005 55 19 2.6 7.0 0.00 0.04 0.00 81 1014.0
20260505081505 55 349 4.3 7.0 0.00 0.04 0.00 82 1014.0
20260505081004 55 12 2.6 7.8 0.00 0.04 0.00 81 1014.0
20260505080505 55 356 2.6 7.8 0.00 0.04 0.00 82 1014.0
20260505080005 55 332 3.5 7.0 0.00 0.04 0.00 83 1014.0
20260505075504 55 339 4.3 7.0 0.00 0.04 0.00 85 1013.9
20260505075004 54 343 2.6 7.0 0.00 0.04 0.00 87 1014.0
20260505074504 54 347 3.5 7.0 0.00 0.04 0.00 88 1014.0
20260505073504 53 349 2.6 5.2 0.00 0.04 0.00 88 1013.9
20260505073005 53 20 2.6 6.1 0.00 0.04 0.00 90 1013.9
20260505072005 52 354 2.6 5.2 0.00 0.04 0.00 90 1014.0
20260505071504 52 341 2.6 6.1 0.00 0.04 0.00 91 1014.0
20260505070504 52 352 2.6 7.8 0.00 0.04 0.00 92 1013.9
20260505070005 52 22 2.6 7.8 0.00 0.04 0.00 92 1013.9
20260505065005 51 353 1.7 5.2 0.00 0.04 0.00 93 1014.1
20260505064005 51 350 2.6 6.1 0.00 0.04 0.00 93 1014.1
20260505063505 51 340 2.6 6.1 0.00 0.04 0.00 93 1014.1
20260505062504 51 357 1.7 4.3 0.00 0.04 0.00 93 1014.0
20260505060504 50 348 1.7 5.2 0.00 0.04 0.00 93 1013.8
20260505055505 50 337 2.6 5.2 0.00 0.04 0.00 94 1013.7
20260505055005 50 337 1.7 5.2 0.00 0.04 0.00 94 1013.7
20260505054504 50 344 2.6 5.2 0.00 0.04 0.00 94 1013.7
20260505053504 50 331 3.5 5.2 0.00 0.04 0.00 94 1013.8
20260505053004 50 329 1.7 5.2 0.00 0.04 0.00 93 1013.8
20260505051504 50 349 2.6 5.2 0.00 0.04 0.00 93 1013.6
20260505051005 50 354 2.6 5.2 0.00 0.04 0.00 93 1013.6
20260505035005 52 4 1.7 4.3 0.00 0.04 0.00 93 1013.7
20260505034504 52 4 0.9 2.6 0.00 0.04 0.00 92 1013.7
20260505033504 52 1 0.0 2.6 0.00 0.04 0.00 92 1013.7
20260505033004 52 354 1.7 2.6 0.00 0.04 0.00 92 1013.7
20260505032505 52 336 1.7 2.6 0.00 0.04 0.00 92 1013.7
20260505032004 52 334 2.6 2.6 0.00 0.04 0.00 92 1013.7
20260505025005 52 342 1.7 4.3 0.00 0.04 0.00 91 1013.7
20260505024005 53 339 2.6 4.3 0.00 0.04 0.00 91 1013.6
20260505023504 53 335 1.7 4.3 0.00 0.04 0.00 91 1013.7
20260505021005 54 338 1.7 2.6 0.00 0.04 0.00 90 1013.8
20260505020505 54 0 0.9 2.6 0.00 0.04 0.00 90 1013.8
20260505020005 54 355 0.9 1.7 0.00 0.04 0.00 89 1013.9
20260505015005 54 355 0.9 2.6 0.00 0.04 0.00 89 1014.0
20260505013505 54 38 0.9 2.6 0.00 0.04 0.00 89 1014.0
20260505013004 54 40 0.0 2.6 0.00 0.04 0.00 89 1014.1
20260505012505 54 24 0.9 2.6 0.00 0.04 0.00 89 1014.2
20260505005505 54 355 0.9 2.6 0.00 0.04 0.00 89 1014.2
20260505005005 54 337 1.7 2.6 0.00 0.04 0.00 89 1014.3
20260505004005 54 350 0.9 4.3 0.00 0.04 0.00 88 1014.4
20260505003504 54 342 1.7 4.3 0.00 0.04 0.00 88 1014.4
20260505003004 54 4 0.9 4.3 0.00 0.04 0.00 88 1014.3
20260505002505 54 18 1.7 4.3 0.00 0.04 0.00 88 1014.3
20260505001504 54 11 1.7 2.6 0.00 0.04 0.00 88 1014.3
20260505000004 54 43 0.9 2.6 0.00 0.04 0.00 89 1014.4
20260504233504 54 52 1.7 4.3 0.00 0.04 0.00 91 1014.5
20260504233005 54 35 0.9 2.6 0.00 0.04 0.00 91 1014.5
20260504231005 54 46 0.9 4.3 0.00 0.04 0.00 91 1014.4
20260504230505 54 5 1.7 4.3 0.00 0.04 0.00 91 1014.3
20260504230005 54 5 1.7 2.6 0.00 0.04 0.00 91 1014.3
20260504225505 54 12 0.9 2.6 0.00 0.04 0.04 91 1014.4
20260504224505 54 30 1.7 4.3 0.00 0.04 0.04 91 1014.4
20260504223505 55 335 1.7 4.3 0.00 0.04 0.04 91 1014.4
20260504222505 55 325 1.7 4.3 0.00 0.04 0.04 91 1014.5
20260504221004 55 325 2.6 4.3 0.00 0.04 0.04 91 1014.5
20260504220505 55 332 2.6 4.3 0.00 0.04 0.04 91 1014.5
20260504220004 55 345 1.7 4.3 0.00 0.04 0.04 91 1014.5